Flag for Germany Weather past 2 weeks in Neuss, North Rhine-Westphalia, Germany

Now
25 °F

Passing clouds.


Feels Like: 20 °F
Forecast: 26 / 38 °F
Wind: 3 mph from Northwest

Location: Duesseldorf

Current Time: Dec 28, 2014 at 8:26:56 PM

Latest Report: Dec 28, 2014 at 7:50 PM


Visibility: N/A

Pressure: 30.51 "Hg

Humidity: 86%

Dew point: 21 °F

Location of NeussLocation

Historic Weather in Neuss — Graph

°F

Neuss temperature yesterday

Maximum temperature yesterday: 37 °F (at 12:20 AM)
Minimum temperature yesterday: 30 °F (at 11:50 PM)
Average temperature yesterday: 34 °F

Past Weeks' High & Low Weather Summary

 TemperatureHumidityPressure
High55 °F (Dec 18, 4:50 PM)100% (Dec 14, 3:50 AM)30.51 "Hg (Dec 14, 3:50 AM)
Low25 °F (Dec 28, 6:50 AM)55% (Dec 28, 1:20 PM)29.42 "Hg (Dec 27, 12:50 PM)
Average42 °F86%30.02 "Hg
* Reported Dec 13 7:20 PM — Dec 28 7:20 PM, Neuss, Weather by CustomWeather, © 2014

Note: Actual official high and low records may vary slightly from our data, if they occured in-between our weather recording intervals... More about our weather records

Advertising

Neuss weather history for previous 24 hours

 ConditionsComfort  
Time TempWeatherWind HumidityBarometerVisibility
7:20 PM
Dec 28
25 °FClear.3 mph86%30.51 "Hg10 mi
6:50 PM27 °FClear.7 mph86%30.51 "Hg10 mi
6:20 PM27 °FClear.5 mph86%30.48 "Hg10 mi
5:50 PM28 °FPassing clouds.3 mph80%30.45 "HgN/A
5:20 PM28 °FPassing clouds.3 mph80%30.45 "HgN/A
4:50 PM30 °FPassing clouds.5 mph75%30.42 "HgN/A
4:20 PM30 °FScattered clouds.8 mph75%30.42 "HgN/A
3:50 PM32 °FScattered clouds.6 mph69%30.42 "HgN/A
3:20 PM32 °FPassing clouds.8 mph64%30.39 "HgN/A
2:50 PM32 °FSunny.8 mph64%30.39 "Hg10 mi
2:20 PM30 °FSunny.9 mph64%30.36 "Hg10 mi
1:50 PM30 °FSunny.8 mph55%30.36 "Hg10 mi
1:20 PM30 °FSunny.10 mph55%30.33 "Hg10 mi
12:50 PM28 °FSunny.13 mph59%30.33 "Hg10 mi
12:20 PM28 °FSunny.12 mph59%30.30 "Hg10 mi
11:50 AM28 °FSunny.12 mph64%30.30 "Hg10 mi
11:20 AM27 °FSunny.12 mph69%30.30 "Hg10 mi
10:50 AM27 °FSunny.14 mph69%30.27 "Hg10 mi
10:20 AM27 °FSunny.15 mph69%30.24 "Hg10 mi
9:50 AM25 °FSunny.14 mph74%30.21 "Hg10 mi
9:20 AM25 °FSunny.14 mph69%30.18 "Hg10 mi
8:50 AM25 °FSunny.14 mph69%30.15 "Hg10 mi
8:20 AM25 °FClear.14 mph69%30.12 "Hg10 mi
7:50 AM25 °FClear.16 mph69%30.09 "Hg10 mi
7:20 AM25 °FClear.16 mph69%30.07 "Hg10 mi
6:50 AM25 °FClear.15 mph74%30.07 "Hg10 mi
6:20 AM27 °FClear.16 mph69%30.04 "Hg10 mi
5:50 AM27 °FPassing clouds.17 mph69%30.01 "HgN/A
5:20 AM27 °FPassing clouds.16 mph74%29.98 "HgN/A
4:20 AM27 °FPassing clouds.16 mph69%29.95 "HgN/A
3:50 AM27 °FPassing clouds.15 mph74%29.92 "HgN/A
3:20 AM28 °FPassing clouds.18 mph69%29.89 "HgN/A
2:50 AM28 °FPassing clouds.18 mph69%29.86 "HgN/A
2:20 AM28 °FPassing clouds.21 mph69%29.83 "HgN/A
1:50 AM28 °FClear.18 mph69%29.80 "Hg10 mi
1:20 AM28 °FClear.22 mph69%29.77 "Hg10 mi
12:50 AM30 °FClear.21 mph69%29.77 "Hg10 mi
12:20 AM30 °FClear.21 mph69%29.74 "Hg10 mi
11:50 PM
Dec 27
30 °FClear.21 mph69%29.71 "Hg10 mi
11:20 PM32 °FClear.17 mph64%29.71 "Hg10 mi
10:50 PM32 °FClear.20 mph64%29.68 "Hg10 mi
10:20 PM32 °FClear.17 mph64%29.65 "Hg10 mi
9:50 PM32 °FClear.15 mph64%29.65 "Hg10 mi
9:20 PM34 °FClear.18 mph60%29.62 "Hg10 mi
8:50 PM34 °FClear.17 mph65%29.62 "Hg10 mi
8:20 PM34 °FClear.18 mph65%29.59 "Hg10 mi
Weather by CustomWeather, © 2014

See weather overviewHow to use our weather pages